www.pogodaiklimat.ru

Погода и климат >> Архив погоды >> Пакистан >> Сиялкот


ПОГОДА в Сиялкоте

  • Прогноз погоды в Сиялкоте
  • Монитор погоды в Сиялкоте

АРХИВ ПОГОДЫ в Сиялкоте

Время (UTC), дата Ветер
(напр.,м/с)
 
Видим.   Явления Облачность Т
(С)
Тd
(С)
f
(%)
Тe
(С)
Тes
(С)
Комфортность P
(гПа)
Po
(гПа)
Тmin
(С)
Tmax
(С)
R
(мм)
R24
(мм)
S
(см)
00 10.09 В 1 4000 м дым 3/3 1000 м
[Sc]
+28.0 +24.4 81 +39 +39 очень
душно
999.5 971.2
03 10.09 штиль 0 4000 м дым ясно +30.0 +25.8 78 +45 +51 опасность
перегрева
1000.3 972.1 +27.3
06 10.09 штиль 0 4000 м 8/4 1000 м
[Sc Ac As]
+33.5 +26.6 67 +50 +57 опасность
перегрева
1000.4 972.5
09 10.09 штиль 0 4000 м 8/4 1000 м
[Sc Ac As]
+36.0 +26.4 58 +53 +58 опасность
перегрева
997.5 969.7
12 10.09 ЮЗ 1 4000 м 8/4 1000 м
[Sc Ac As]
+35.0 +26.8 63 +53 +53 опасность
перегрева
995.8 968.2 +36.5
15 10.09 штиль 0 4000 м 4/4 1000 м
[Sc]
+32.5 +26.3 70 +49 +49 опасность
перегрева
997.4 1000.0
18 10.09 штиль 0 4000 м 4/4 1000 м
[Sc]
+31.0 +26.1 75 +46 +46 опасность
перегрева
999.4 971.6
21 10.09 штиль 0 4000 м 4/4 1000 м
[Sc]
+29.0 +25.5 81 +43 +43 опасность
перегрева
999.9 1000.0
00 11.09 штиль 0 4000 м ясно +28.0 +25.0 84 +40 +40 очень
душно
1000.8 972.4
03 11.09 штиль 0 4000 м ясно +30.0 +25.8 78 +45 +50 опасность
перегрева
1002.0 974.0 +26.7
06 11.09 штиль 0 4000 м 4/0
[Ac As]
+34.0 +26.5 65 +51 +66 опасность
перегрева
1001.4 973.7
09 11.09 СЗ 1 4000 м 8/4 1000 м
[Sc Ac As]
+35.5 +26.6 60 +52 +57 опасность
перегрева
999.7 1000.0
12 11.09 ЮЗ 2 4000 м 4/0
[Ac As]
+35.5 +27.4 63 +54 +55 опасность
перегрева
997.4 970.0 +36.5
15 11.09 ЮЗ 1 4000 м ясно +33.0 +25.3 64 +47 +47 опасность
перегрева
1000.1 1000.0
18 11.09 штиль 0 4000 м 4/0
[Ac trans]
+31.0 +23.9 66 +43 +43 опасность
перегрева
1001.3 973.2
21 11.09 ЮЗ 1 4000 м 3/0
[Ac trans]
+29.0 +24.8 78 +41 +41 опасность
перегрева
1000.7 1000.0
00 12.09 штиль 0 4000 м ясно +28.5 +25.0 81 +41 +41 опасность
перегрева
1000.7 972.3
03 12.09 штиль 0 4000 м ясно +30.5 +26.4 79 +47 +52 опасность
перегрева
1001.5 973.5 +28.1
06 12.09 ЮВ 1 4000 м 8/4 1000 м
[Sc Ac As]
+34.5 +27.0 65 +52 +59 опасность
перегрева
1002.0 974.4
09 12.09 штиль 0 4000 м 8/4 1000 м
[Sc Ac As]
+34.5 +28.5 71 +57 +62 опасность
перегрева
1000.9 1000.0
12 12.09 штиль 0 4000 м 8/4
[Sc Ac As]
+34.5 +27.7 68 +54 +55 опасность
перегрева
999.3 971.5 +35.5
15 12.09 штиль 0 4000 м 6/3 1000 м
[Sc Ac trans]
+33.0 +27.6 73 +52 +52 опасность
перегрева
1000.0 1000.0
18 12.09 штиль 0 4000 м ясно +30.0 +25.8 78 +45 +45 опасность
перегрева
1001.8 973.8
21 12.09 штиль 0 4000 м 3/3 1000 м
[Sc]
+30.0 +25.8 78 +45 +45 опасность
перегрева
1002.6 1000.0
00 13.09 В 1 4000 м 9/4 1000 м
[Sc Ac As]
+28.0 +23.7 77 +38 +38 очень
душно
1003.7 975.3
03 13.09 штиль 0 4000 м 9/4 1000 м
[Sc Ac As]
+29.0 +24.8 78 +41 +43 опасность
перегрева
1004.1 975.8 +27.0
06 13.09 штиль 0 4000 м 8/4 1000 м
[Sc Ac As]
+32.0 +24.2 63 +44 +51 опасность
перегрева
1004.4 976.4
09 13.09 ЮВ 1 4000 м 8/4 1000 м
[Sc Ac As]
+33.5 +25.9 65 +49 +54 опасность
перегрева
1002.7 1000.0
12 13.09 штиль 0 4000 м 9/4 1000 м
[Sc Ac As]
+32.5 +26.3 70 +49 +49 опасность
перегрева
1001.1 973.3 +34.5
15 13.09 штиль 0 4000 м 6/3 1000 м
[Sc Ac As]
+29.5 +24.5 75 +42 +42 опасность
перегрева
1001.8 1000.0
18 13.09 штиль 0 4000 м 4/4 1000 м
[Sc]
+27.0 +24.1 84 +37 +37 очень
душно
1003.6 975.1
21 13.09 штиль 0 4000 м 4/4 1000 м
[Sc]
+25.5 +22.6 84 +34 +34 очень
душно
1003.6 1000.0
00 14.09 штиль 0 4000 м 9/4 1000 м
[Sc Ac As]
+25.0 +22.0 83 +32 +32 очень
душно
1003.3 974.6
03 14.09 штиль 0 4000 м 8/4 1000 м
[Sc Ac As]
+27.0 +22.6 77 +36 +37 очень
душно
1005.0 976.5 +24.9
06 14.09 штиль 0 4000 м 9/4 1000 м
[Sc Ac As]
+32.0 +25.0 67 +46 +51 опасность
перегрева
1006.0 977.9
09 14.09 штиль 0 4000 м гроза без осадков 10/5 600 м
[Cb cap As op]
+33.0 +26.1 67 +49 +51 опасность
перегрева
1004.1 1000.0
12 14.09 штиль 0 4000 м {морось} 9/4 1000 м
[Sc Ac As]
+31.0 +24.6 69 +44 +44 опасность
перегрева
1003.9 975.7 +33.5 0.0
15 14.09 штиль 0 4000 м 8/4 1000 м
[Sc diur, vesp Ac As]
+29.0 +23.2 71 +39 +39 очень
душно
1003.6 1000.0
18 14.09 штиль 0 4000 м 8/4 1000 м
[Sc diur, vesp Ac As]
+28.0 +23.7 77 +38 +38 очень
душно
1004.4 976.0
21 14.09 штиль 0 4000 м 6/4 1000 м
[Sc diur, vesp Ac As]
+27.0 +24.1 84 +37 +37 очень
душно
1003.6 1000.0
00 15.09 штиль 0 4000 м 8/4 1000 м
[Sc diur, vesp Ac As]
+26.5 +24.4 88 +37 +37 очень
душно
1002.8 974.4
03 15.09 штиль 0 4000 м 4/0
[Ac trans]
+29.0 +26.2 85 +44 +48 опасность
перегрева
1003.6 975.4 +26.1
06 15.09 штиль 0 4000 м 8/4 1000 м
[Sc diur, vesp Ac As]
+32.0 +27.9 79 +52 +59 опасность
перегрева
1004.8 967.6
09 15.09 штиль 0 4000 м 8/4 1000 м
[Sc diur, vesp Ac As]
+33.0 +27.6 73 +52 +58 опасность
перегрева
1004.2 975.9
12 15.09 ЮЗ 1 4000 м 6/4 1000 м
[Sc diur, vesp Ac As]
+34.0 +27.9 71 +55 +55 опасность
перегрева
1002.3 974.6 +34.5
15 15.09 штиль 0 4000 м 8/4 1000 м
[Sc diur, vesp Ac As]
+31.0 +26.9 79 +48 +48 опасность
перегрева
1001.7 1000.0
18 15.09 штиль 0 4000 м 6/4 1000 м
[Sc diur, vesp Ac As]
+30.0 +26.5 82 +46 +46 опасность
перегрева
1002.0 974.0
21 15.09 штиль 0 4000 м 8/4 1000 м
[Sc diur, vesp Ac As]
+28.5 +25.7 85 +42 +42 опасность
перегрева
1002.4 1000.0
00 16.09 ЮВ 1 4000 м 8/4 1000 м
[Sc diur, vesp Ac As]
+28.0 +25.2 85 +41 +41 опасность
перегрева
1002.3 974.0
03 16.09 СЗ 1 4000 м 10/5 600 м
[Cb cap Ac As]
+24.0 +22.5 91 +31 +32 очень
душно
1004.6 975.7 +23.5 16
06 16.09 СЗ 1 4000 м 8/4 1000 м
[Sc Ac As]
+26.5 +22.9 81 +35 +41 очень
душно
1004.6 976.1
09 16.09 штиль 0 4000 м 4/0
[Ac trans]
+30.0 +23.5 68 +41 +53 опасность
перегрева
1002.7 1000.0
12 16.09 СЗ 1 10 км 4/0
[Ac trans]
+32.0 +23.4 60 +43 +44 опасность
перегрева
1000.0 972.0 +34.1
18 16.09 штиль 0 4000 м ясно +27.0 +24.1 84 +37 +37 очень
душно
1002.2 973.8
21 16.09 штиль 0 4000 м ясно +26.0 +23.1 84 +35 +35 очень
душно
1002.4 1000.0

 

Местоположение метеостанции Сиялкот (Пакистан): широта 32.50 долгота 74.53 высота над уровнем моря 256 м.

В архиве по умолчанию представлена погода в Сиялкоте за последнюю неделю. Архивные данные за месяц целиком и за предыдущие месяцы, начиная с января 2011 года, Вы можете получить, выбрав интересующий диапазон дат из раскрывающегося списка и нажав кнопку "Ввод!".


*Определитесь, кто Вы:
робот инопланетянин человек

Внимание! Время в таблицах - всемирное. Для получения местного времени необходимо прибавить поправку, которая равна 5 ч.

Смотрите также архив погоды в соседних городах и на ближайших метеорологических станциях:

Погода в Джамму (Джамму и Кашмир, Индия) (34 км)
Погода в Гуджрате (Пакистан) (40 км)
Погода в Сиалкот аэропорту (Пакистан) (47 км)
Погода в Гуджранвале (Пакистан) (53 км)
Погода в Наровале (Пакистан) (53 км)
Погода в Катре (Джамму и Кашмир, Индия) (66 км)
Погода в Джеламе (Пакистан) (90 км)
Погода в Хафизабаде (Пакистан) (95 км)
Погода в Батоте (Джамму и Кашмир, Индия) (100 км)
Погода в Амритсаре (Пенджаб, Индия) (102 км)

Пояснения к столбцам:

Ветер - указаны скорость ветра в м/с - средняя за 10 мин, порывы в срок и между сроками (в фигурных скобках) и направление, откуда дует ветер: С - северный, СВ - северо-восточный, В - восточный, ЮВ - юго-восточный, Ю - южный, ЮЗ - юго-западный, З - западный, СЗ - северо-западный.
Видимость - горизонтальная дальность видимости в метрах или километрах. При видимости от 1 до 10 км при отсутствии осадков обычно наблюдается дымка, при ухудшении видимости до 1 км и менее - туман. В сухую погоду видимость может ухудшаться дымом, пылью или мглою.
Явления - указаны атмосферные явления, наблюдавшиеся в срок или в последний час перед сроком; фигурными скобками обозначены явления, наблюдавшиеся между сроками (за 1-3 часа до срока); квадратными скобками обозначены град или гололедные отложения с указанием их диаметра в мм.
Облачность - указаны через наклонную черту общая и нижняя облачность в баллах и высота нижней границы облаков в метрах; квадратными скобками обозначены формы облаков: Ci - перистые, Cs - перисто-слоистые, Cc - перисто-кучевые, Ac - высококучевые, As - высокослоистые, Sc - слоисто-кучевые, Ns - слоисто-дождевые, Cu - кучевые, Cb - кучево-дождевые. Подробнее классификацию облаков см. в Атласе облаков (PDF).
T - Температура воздуха - температура, измеренная на высоте 2 м над землей.
Td - Температура точки росы - температура, при понижении до которой содержащийся в воздухе водяной пар достигнет насыщения.
f - Относительная влажность воздуха - влажноcть воздуха, измеренная на высоте 2 м над землей.
Te - Эффективная температура - температура, которую ощущает одетый по сезону человек в тени. Характеристика душности погоды. При расчете учитывается влияние влажности воздуха и скорости ветра на теплоощущения человека.
Tes - Эффективная температура на солнце - температура, которую ощущает человек, с поправкой на солнечный нагрев. Характеристика знойности погоды. Зависит от высоты солнца над горизонтом, облачности и скорости ветра. Ночью, в пасмурную погоду, а также при ветре 12 м/с и более поправка равна нулю.
P - Атмосферное давление - приведенное к уровню моря атмосферное давление.
Po - Атмосферное давление - измеренное на уровне метеостанции атмосферное давление.
Tmin - Минимальная температура - минимум температуры воздуха на высоте 2 м над землей.
Tmax - Максимальная температура - максимум температуры воздуха на высоте 2 м над землей.
R - Количество осадков - Количество выпавших осадков за период времени, мм. При наведении курсора мыши на число - период времени, за который выпало указанное количество осадков.
R24 - Количество осадков - Количество выпавших осадков за 24 часа, мм.
S - Снежный покров - Высота снежного покрова, см. При наведении курсора мыши на число - состояние снежного покрова и степень покрытия местности в баллах.